User: anonymous   Login
Location: Ostrava
(49.8330°N, 18.2830°E)
Time: 06:40:32
(UTC+02:00)
Language:

Lacrosse 5 - Orbit

View from above orbital plane
View from above orbital plane
View from above satellite
View from above satellite

Ground track
Ground track

The orbit data is extracted from the following two-line orbital elements,

1 28646U 05016A   18168.88614706 0.00000000  00000-0  00000-0 0    05
2 28646  57.0060 201.8530 0004000  89.2456 270.7544 14.51906582    03
Epoch (UTC): 17 June 2018 21:16:03
Eccentricity: 0.0004000
inclination: 57.0060°
perigee height: 716 km
apogee height: 722 km
right ascension of ascending node: 201.8530°
argument of perigee: 89.2456°
revolutions per day: 14.51906582
mean anomaly at epoch: 270.7544°
orbit number at epoch: 0

The dashed part of the orbit path shows where the satellite is in the earth's shadow,  

DLR